TimeEDT,TemperatureF,Dew PointF,Humidity,Sea Level PressureIn,VisibilityMPH,Wind Direction,Wind SpeedMPH,Gust SpeedMPH,PrecipitationIn,Events,Conditions,WindDirDegrees,DateUTC
12:54 AM,60.1,57.9,93,30.08,-9999.0,East,3.5,-,N/A,,Unknown,90,2012-10-03 04:54:00
1:54 AM,60.1,57.9,93,30.07,-9999.0,East,6.9,-,N/A,,Unknown,90,2012-10-03 05:54:00
2:54 AM,60.1,57.9,93,30.06,-9999.0,East,9.2,-,N/A,,Unknown,90,2012-10-03 06:54:00
3:54 AM,60.1,57.9,93,30.07,-9999.0,East,5.8,-,N/A,,Unknown,80,2012-10-03 07:54:00
4:54 AM,60.1,57.9,93,30.07,-9999.0,East,9.2,-,N/A,,Unknown,90,2012-10-03 08:54:00
5:54 AM,60.1,57.0,90,30.09,-9999.0,ENE,9.2,-,N/A,,Unknown,70,2012-10-03 09:54:00
6:54 AM,59.0,57.0,93,30.10,-9999.0,East,11.5,-,N/A,,Unknown,90,2012-10-03 10:54:00
7:54 AM,59.0,57.0,93,30.12,-9999.0,ENE,8.1,-,N/A,,Unknown,60,2012-10-03 11:54:00
8:54 AM,60.1,57.9,93,30.13,-9999.0,ENE,8.1,-,N/A,,Unknown,70,2012-10-03 12:54:00
9:54 AM,61.0,60.1,97,30.13,-9999.0,Variable,6.9,-,N/A,,Unknown,0,2012-10-03 13:54:00
10:54 AM,61.0,60.1,97,30.12,-9999.0,ENE,8.1,-,N/A,,Unknown,70,2012-10-03 14:54:00
11:54 AM,61.0,60.1,97,30.12,-9999.0,NE,5.8,-,N/A,,Unknown,50,2012-10-03 15:54:00
12:54 PM,60.1,59.0,96,30.13,-9999.0,NE,9.2,-,0.01,,Unknown,50,2012-10-03 16:54:00
1:54 PM,61.0,59.0,93,30.12,-9999.0,ENE,11.5,-,N/A,,Unknown,60,2012-10-03 17:54:00
2:54 PM,61.0,60.1,97,30.12,-9999.0,NE,8.1,-,N/A,,Unknown,50,2012-10-03 18:54:00
3:54 PM,60.1,59.0,96,30.12,-9999.0,NE,11.5,-,N/A,,Unknown,40,2012-10-03 19:54:00
4:54 PM,60.1,57.9,93,30.12,-9999.0,NE,11.5,17.3,N/A,,Unknown,50,2012-10-03 20:54:00
5:54 PM,59.0,57.9,96,30.14,-9999.0,NE,10.4,-,N/A,,Unknown,50,2012-10-03 21:54:00
6:54 PM,59.0,57.9,96,30.15,-9999.0,NE,6.9,-,N/A,,Unknown,40,2012-10-03 22:54:00
7:54 PM,59.0,57.9,96,30.15,-9999.0,NE,10.4,-,N/A,,Unknown,40,2012-10-03 23:54:00
8:54 PM,59.0,57.9,96,30.17,-9999.0,NE,9.2,-,N/A,,Unknown,50,2012-10-04 00:54:00
9:54 PM,59.0,57.9,96,30.18,-9999.0,NE,8.1,-,N/A,,Unknown,40,2012-10-04 01:54:00
10:54 PM,59.0,57.9,96,30.18,-9999.0,NE,6.9,-,N/A,,Unknown,50,2012-10-04 02:54:00
11:54 PM,59.0,57.9,96,30.19,-9999.0,NNE,6.9,-,N/A,,Unknown,20,2012-10-04 03:54:00